When you browse on this site, cookies collect data to enhance your experience and personalize the content and advertising you see.
Visit our Privacy Policy to learn more. By continuing to use the site, you agree to this use of cookies and data.
  • In Belgium
  • List of Countries
  • For 7 days
  • Water Temperature
  • Weather Map
  • Weather Widgets
  • user-avatar
    Login

    Hourly Weather Bafoussam

    Today, 21 February, Friday

    Time Temperature Precipitation Wind Pressure Humidity
    00:00 +20°C° 0 mm 1 mps 642 mmHg 50%
    01:00 +20°C° 0 mm 1 mps 642 mmHg 57%
    02:00 +19°C° 0 mm 1 mps 642 mmHg 59%
    03:00 +19°C° 0 mm 1 mps 642 mmHg 60%
    04:00 +18°C° 0 mm 1 mps 641 mmHg 62%
    05:00 +18°C° 0 mm 1 mps 642 mmHg 57%
    06:00 +18°C° 0 mm 1 mps 642 mmHg 51%
    07:00 +17°C° 0 mm 0 mps 643 mmHg 45%
    14:00 +35°C° 0 mm 4 mps 644 mmHg 17%
    15:00 +35°C° 0 mm 3 mps 644 mmHg 17%
    16:00 +35°C° 0 mm 2 mps 643 mmHg 17%
    17:00 +31°C° 0 mm 2 mps 643 mmHg 21%
    18:00 +28°C° 0 mm 1 mps 642 mmHg 25%
    19:00 +25°C° 0 mm 1 mps 642 mmHg 29%
    20:00 +24°C° 0 mm 1 mps 642 mmHg 34%
    21:00 +23°C° 0 mm 1 mps 643 mmHg 40%
    22:00 +22°C° 0 mm 1 mps 643 mmHg 46%
    23:00 +22°C° 0 mm 1 mps 643 mmHg 44%

    Tomorrow, 22 February, Saturday

    Time Temperature Precipitation Wind Pressure Humidity
    00:00 +22°C° 0 mm 1 mps 643 mmHg 42%
    01:00 +20°C° 0 mm 0 mps 643 mmHg 40%
    02:00 +19°C° 0 mm 0 mps 643 mmHg 41%
    03:00 +20°C° 0 mm 1 mps 642 mmHg 41%
    04:00 +19°C° 0 mm 1 mps 642 mmHg 42%
    05:00 +19°C° 0 mm 1 mps 642 mmHg 40%
    06:00 +20°C° 0 mm 1 mps 643 mmHg 38%
    07:00 +18°C° 0 mm 0 mps 643 mmHg 36%
    08:00 +24°C° 0 mm 1 mps 645 mmHg 30%
    09:00 +28°C° 0 mm 2 mps 646 mmHg 24%
    10:00 +32°C° 0 mm 2 mps 648 mmHg 18%
    11:00 +34°C° 0 mm 3 mps 647 mmHg 18%
    12:00 +35°C° 0 mm 3 mps 647 mmHg 18%
    13:00 +36°C° 0 mm 4 mps 646 mmHg 17%
    14:00 +35°C° 0 mm 3 mps 645 mmHg 17%
    15:00 +35°C° 0 mm 3 mps 645 mmHg 18%
    16:00 +35°C° 0 mm 3 mps 644 mmHg 18%
    17:00 +31°C° 0 mm 2 mps 644 mmHg 25%
    18:00 +28°C° 0 mm 2 mps 643 mmHg 32%
    19:00 +25°C° 0 mm 2 mps 643 mmHg 39%
    20:00 +24°C° 0 mm 2 mps 643 mmHg 46%
    21:00 +23°C° 0 mm 1 mps 643 mmHg 53%
    22:00 +22°C° 0 mm 1 mps 644 mmHg 61%
    23:00 +21°C° 0 mm 1 mps 644 mmHg 66%

    Day after tomorrow, 23 February, Sunday

    Time Temperature Precipitation Wind Pressure Humidity
    00:00 +20°C° 0 mm 1 mps 643 mmHg 72%
    01:00 +20°C° 0 mm 1 mps 643 mmHg 78%
    02:00 +19°C° 0 mm 1 mps 643 mmHg 79%
    03:00 +19°C° 0 mm 1 mps 642 mmHg 79%
    04:00 +18°C° 0 mm 1 mps 642 mmHg 79%
    05:00 +18°C° 0 mm 1 mps 643 mmHg 74%
    06:00 +19°C° 0 mm 1 mps 643 mmHg 69%
    07:00 +19°C° 0 mm 1 mps 643 mmHg 63%
    08:00 +23°C° 0 mm 1 mps 645 mmHg 50%
    09:00 +27°C° 0 mm 1 mps 647 mmHg 36%
    10:00 +31°C° 0 mm 2 mps 649 mmHg 23%
    11:00 +32°C° 0 mm 2 mps 648 mmHg 21%
    12:00 +35°C° 0 mm 3 mps 647 mmHg 18%
    13:00 +36°C° 0 mm 3 mps 647 mmHg 16%
    14:00 +35°C° 0 mm 3 mps 646 mmHg 18%
    15:00 +35°C° 0 mm 3 mps 646 mmHg 20%
    16:00 +35°C° 0 mm 2 mps 645 mmHg 21%
    17:00 +31°C° 0 mm 2 mps 644 mmHg 31%
    18:00 +28°C° 0 mm 2 mps 644 mmHg 41%
    19:00 +25°C° 0 mm 2 mps 643 mmHg 50%
    20:00 +23°C° 0 mm 2 mps 643 mmHg 59%
    21:00 +21°C° 0 mm 2 mps 644 mmHg 67%
    22:00 +21°C° 0 mm 1 mps 644 mmHg 75%
    23:00 +20°C° 0 mm 1 mps 644 mmHg 73%

    24 February, Monday

    Time Temperature Precipitation Wind Pressure Humidity
    00:00 +20°C° 0 mm 1 mps 643 mmHg 70%
    01:00 +19°C° 0 mm 1 mps 643 mmHg 67%
    02:00 +19°C° 0 mm 1 mps 643 mmHg 60%
    03:00 +18°C° 0 mm 1 mps 643 mmHg 53%
    04:00 +18°C° 0 mm 1 mps 642 mmHg 45%
    05:00 +18°C° 0 mm 1 mps 643 mmHg 44%
    06:00 +18°C° 0 mm 1 mps 643 mmHg 43%
    07:00 +18°C° 0 mm 1 mps 643 mmHg 42%
    08:00 +22°C° 0 mm 1 mps 645 mmHg 34%
    09:00 +27°C° 0 mm 1 mps 646 mmHg 26%
    10:00 +32°C° 0 mm 1 mps 648 mmHg 18%
    11:00 +33°C° 0 mm 1 mps 648 mmHg 17%
    12:00 +35°C° 0 mm 2 mps 647 mmHg 15%
    13:00 +36°C° 0 mm 2 mps 647 mmHg 14%
    14:00 +36°C° 0 mm 2 mps 646 mmHg 16%
    15:00 +35°C° 0 mm 3 mps 645 mmHg 17%
    16:00 +35°C° 0 mm 3 mps 644 mmHg 19%
    17:00 +31°C° 0 mm 3 mps 644 mmHg 29%
    18:00 +28°C° 0 mm 2 mps 643 mmHg 39%
    19:00 +25°C° 0 mm 2 mps 643 mmHg 48%
    20:00 +23°C° 0 mm 2 mps 643 mmHg 58%
    21:00 +21°C° 0 mm 2 mps 643 mmHg 67%
    22:00 +19°C° 0 mm 2 mps 643 mmHg 77%
    23:00 +19°C° 0 mm 2 mps 643 mmHg 77%

    25 February, Tuesday

    Time Temperature Precipitation Wind Pressure Humidity
    00:00 +19°C° 0 mm 1 mps 643 mmHg 76%
    01:00 +19°C° 0 mm 1 mps 643 mmHg 76%
    02:00 +18°C° 0 mm 1 mps 643 mmHg 74%
    03:00 +18°C° 0 mm 1 mps 642 mmHg 72%
    04:00 +16°C° 0 mm 1 mps 642 mmHg 70%
    05:00 +16°C° 0 mm 1 mps 642 mmHg 67%
    06:00 +16°C° 0 mm 1 mps 643 mmHg 65%
    07:00 +16°C° 0 mm 1 mps 643 mmHg 63%
    08:00 +22°C° 0 mm 1 mps 645 mmHg 49%
    09:00 +26°C° 0 mm 1 mps 646 mmHg 35%
    10:00 +31°C° 0 mm 1 mps 648 mmHg 20%
    11:00 +32°C° 0 mm 1 mps 647 mmHg 19%
    12:00 +34°C° 0 mm 2 mps 647 mmHg 18%
    13:00 +35°C° 0 mm 2 mps 646 mmHg 18%
    14:00 +34°C° 0 mm 2 mps 645 mmHg 19%
    15:00 +34°C° 0 mm 2 mps 645 mmHg 21%
    16:00 +34°C° 0 mm 2 mps 644 mmHg 22%
    17:00 +30°C° 0 mm 2 mps 644 mmHg 31%
    18:00 +27°C° 0 mm 2 mps 643 mmHg 40%
    19:00 +24°C° 0 mm 2 mps 643 mmHg 49%
    20:00 +23°C° 0 mm 2 mps 643 mmHg 56%
    21:00 +21°C° 0 mm 2 mps 643 mmHg 64%
    22:00 +19°C° 0 mm 2 mps 643 mmHg 71%
    23:00 +20°C° 0 mm 1 mps 643 mmHg 74%

    26 February, Wednesday

    Time Temperature Precipitation Wind Pressure Humidity
    00:00 +19°C° 0 mm 1 mps 643 mmHg 78%
    01:00 +18°C° 0 mm 1 mps 643 mmHg 81%
    02:00 +18°C° 0 mm 1 mps 642 mmHg 77%
    03:00 +18°C° 0 mm 1 mps 642 mmHg 74%
    04:00 +16°C° 0 mm 1 mps 642 mmHg 71%
    05:00 +16°C° 0 mm 1 mps 642 mmHg 64%
    06:00 +18°C° 0 mm 1 mps 642 mmHg 56%
    07:00 +18°C° 0 mm 1 mps 643 mmHg 49%
    08:00 +22°C° 0 mm 1 mps 644 mmHg 38%
    09:00 +26°C° 0 mm 1 mps 646 mmHg 28%
    10:00 +31°C° 0 mm 1 mps 647 mmHg 18%
    11:00 +32°C° 0 mm 2 mps 647 mmHg 17%
    12:00 +34°C° 0 mm 2 mps 646 mmHg 17%
    13:00 +35°C° 0 mm 2 mps 646 mmHg 16%
    14:00 +35°C° 0 mm 2 mps 645 mmHg 17%
    15:00 +35°C° 0 mm 2 mps 644 mmHg 18%
    16:00 +35°C° 0 mm 2 mps 644 mmHg 18%
    17:00 +31°C° 0 mm 2 mps 643 mmHg 26%
    18:00 +28°C° 0 mm 2 mps 643 mmHg 34%
    19:00 +25°C° 0 mm 1 mps 642 mmHg 42%
    20:00 +23°C° 0 mm 1 mps 643 mmHg 52%
    21:00 +22°C° 0 mm 1 mps 643 mmHg 62%
    22:00 +21°C° 0 mm 1 mps 643 mmHg 72%
    23:00 +20°C° 0 mm 1 mps 643 mmHg 75%
    Show more